This demonstration page uses our WeatherBlox Daily Observations layout. Learn more.

Hourly Observations for May 8, 2015

Temp ( °F °C ) Dew Point ( °F °C ) Humidity (%) Winds ( mph kmh ) Pressure ( in mb ) Visibility ( mi km ) Precip ( " mm )
12:15 am 00:15 Clear 51 10.8 45 7.3 79 79 N 12 19 30 1016 10 16.0934 0 0
12:35 am 00:35 Partly Cloudy 51 10.6 44 6.9 78 78 N 14 22 30 1016 10 16.0934 0 0
12:55 am 00:55 Mostly Cloudy 50 10.2 44 6.5 78 78 N 15 24 30 1016 10 16.0934 0 0
1:15 am 01:15 Mostly Cloudy 50 10.1 44 6.4 78 78 N 13 20 30.03 1017 10 16.0934 0 0
1:35 am 01:35 Cloudy 51 10.3 44 6.5 78 78 N 18 30 30 1016 10 16.0934 0 0
1:55 am 01:55 Mostly Cloudy 50 10.2 44 6.4 78 78 N 16 26 30.03 1017 10 16.0934 0 0
2:15 am 02:15 Partly Cloudy 49 9.4 43 6.1 80 80 NNE 13 20 30.03 1017 10 16.0934 0 0
2:35 am 02:35 Clear 48 8.7 43 6.1 84 84 NNE 7 11 30.06 1018 10 16.0934 0 0
2:55 am 02:55 Partly Cloudy 47 8.6 43 6.2 85 85 N 8 13 30.03 1017 10 16.0934 0 0
3:15 am 03:15 Partly Cloudy 47 8.4 43 6.1 86 86 N 10 17 30.03 1017 10 16.0934 0 0
3:35 am 03:35 Partly Cloudy 47 8.1 43 6 87 87 N 6 9 30.06 1018 10 16.0934 0 0
3:55 am 03:55 Partly Cloudy 46 8 43 6 87 87 N 6 9 30.06 1018 10 16.0934 0 0
4:15 am 04:15 Partly Cloudy 46 8 43 6 87 87 N 6 9 30.06 1018 10 16.0934 0 0
4:35 am 04:35 Clear 45 7.2 42 5.5 89 89 N 6 9 30.06 1018 10 16.0934 0 0
4:55 am 04:55 Clear 45 7.2 42 5.7 90 90 N 8 13 30.06 1018 10 16.0934 0 0
5:15 am 05:15 Clear 45 7.2 42 5.8 91 91 N 6 9 30.06 1018 10 16.0934 0 0
5:35 am 05:35 Clear 44 6.7 42 5.4 92 92 Calm 30.06 1018 10 16.0934 0 0
5:55 am 05:55 Clear 44 6.5 41 5.2 92 92 Calm 30.09 1019 10 16.0934 0 0
6:15 am 06:15 Clear 44 6.6 42 5.5 93 93 Calm 30.09 1019 10 16.0934 0 0
6:35 am 06:35 Sunny 43 6.2 41 5.2 93 93 NNW 6 9 30.12 1020 10 16.0934 0 0
6:55 am 06:55 Sunny 44 6.5 42 5.4 93 93 Calm 30.09 1019 10 16.0934 0 0
7:15 am 07:15 Sunny 44 6.6 42 5.4 92 92 N 3 6 30.09 1019 10 16.0934 0 0
7:35 am 07:35 Sunny 46 7.7 44 6.5 92 92 N 6 9 30.12 1020 10 16.0934 0 0
7:55 am 07:55 Partly Cloudy 47 8.6 44 6.6 87 87 NNW 5 7 30.12 1020 10 16.0934 0 0
8:15 am 08:15 Mostly Cloudy 49 9.6 44 6.9 83 83 N 8 13 30.15 1021 10 16.0934 0 0
8:35 am 08:35 Partly Cloudy 50 10.1 44 6.8 80 80 NNE 10 17 30.12 1020 10 16.0934 0 0
8:55 am 08:55 Partly Cloudy 51 10.4 44 6.6 78 78 NE 10 17 30.15 1021 10 16.0934 0 0
9:15 am 09:15 Mostly Cloudy 52 10.9 43 6.3 73 73 NNE 8 13 30.12 1020 10 16.0934 0 0
9:35 am 09:35 Cloudy 51 10.5 43 6.1 74 74 NE 10 17 30.12 1020 10 16.0934 0 0
9:55 am 09:55 Cloudy 53 11.4 44 6.5 72 72 NNE 9 15 30.09 1019 10 16.0934 0 0
10:15 am 10:15 Mostly Cloudy 53 11.5 43 6.2 70 70 NE 12 19 30.09 1019 10 16.0934 0 0
10:35 am 10:35 Partly Cloudy 55 12.7 44 6.7 67 67 NNE 14 22 30.09 1019 10 16.0934 0 0
10:55 am 10:55 Sunny 56 13.3 44 6.5 64 64 NNE 9 15 30.09 1019 10 16.0934 0 0
11:15 am 11:15 Sunny 57 13.8 43 6.2 60 60 NNE 15 24 30.03 1017 10 16.0934 0 0
11:35 am 11:35 Sunny 57 14.1 43 6 58 58 NE 10 17 30.03 1017 10 16.0934 0 0
11:55 am 11:55 Partly Cloudy 59 15 43 6.1 56 56 NE 14 22 30.03 1017 10 16.0934 0 0
12:15 pm 12:15 Partly Cloudy 59 15.1 43 6.2 56 56 NE 14 22 30.03 1017 10 16.0934 0 0
12:35 pm 12:35 Partly Cloudy 59 15.1 43 6 55 55 NNE 14 22 30.03 1017 10 16.0934 0 0
12:55 pm 12:55 Partly Cloudy 60 15.7 43 5.9 52 52 NNE 10 17 30.03 1017 10 16.0934 0 0
1:15 pm 13:15 Mostly Cloudy 62 16.4 43 6.3 51 51 NE 12 19 30.03 1017 10 16.0934 0 0
1:35 pm 13:35 Partly Cloudy 62 16.5 43 6.1 50 50 NE 9 15 29.97 1015 10 16.0934 0 0
1:55 pm 13:55 Sunny 63 17 43 6.2 49 49 NNE 8 13 29.97 1015 10 16.0934 0 0
2:15 pm 14:15 Sunny 63 17.1 43 5.9 48 48 NE 8 13 29.97 1015 10 16.0934 0 0
2:35 pm 14:35 Sunny 64 17.8 42 5.8 46 46 NNE 8 13 29.97 1015 10 16.0934 0 0
2:55 pm 14:55 Sunny 64 18 42 5.7 45 45 ENE 8 13 29.97 1015 10 16.0934 0 0
3:15 pm 15:15 Sunny 66 18.8 43 5.9 43 43 NE 8 13 29.97 1015 10 16.0934 0 0
3:35 pm 15:35 Sunny 66 18.8 42 5.7 42 42 E 8 13 29.97 1015 10 16.0934 0 0
3:55 pm 15:55 Sunny 67 19.3 42 5.8 41 41 E 10 17 29.94 1014 10 16.0934 0 0
4:15 pm 16:15 Partly Cloudy 67 19.4 43 6 42 42 E 7 11 29.94 1014 10 16.0934 0 0
4:35 pm 16:35 Partly Cloudy 67 19.6 43 5.9 41 41 E 10 17 29.91 1013 10 16.0934 0 0
4:55 pm 16:55 Sunny 67 19.4 43 6.1 42 42 E 9 15 29.94 1014 10 16.0934 0 0
5:15 pm 17:15 Sunny 67 19.6 43 6.1 41 41 NE 12 19 29.88 1012 10 16.0934 0 0
5:35 pm 17:35 Sunny 67 19.3 44 6.8 44 44 E 13 20 29.91 1013 10 16.0934 0 0
5:55 pm 17:55 Partly Cloudy 67 19.4 46 7.9 48 48 E 13 20 29.91 1013 10 16.0934 0 0
6:15 pm 18:15 Partly Cloudy 66 19.1 47 8.1 49 49 E 15 24 29.91 1013 10 16.0934 0 0
6:35 pm 18:35 Partly Cloudy 65 18.3 46 8 51 51 ENE 14 22 29.91 1013 10 16.0934 0 0
6:55 pm 18:55 Partly Cloudy 64 18 47 8.6 54 54 E 14 22 29.94 1014 10 16.0934 0 0
7:15 pm 19:15 Partly Cloudy 64 17.5 48 8.8 57 57 ESE 14 22 29.94 1014 10 16.0934 0 0
7:35 pm 19:35 Mostly Cloudy 63 17 49 9.2 60 60 ESE 13 20 29.94 1014 10 16.0934 0 0
7:55 pm 19:55 Cloudy 62 16.5 49 9.4 63 63 ESE 14 22 29.97 1015 10 16.0934 0 0
8:15 pm 20:15 Cloudy 61 16.1 49 9.3 64 64 ESE 12 19 30 1016 10 16.0934 0 0
8:35 pm 20:35 Cloudy 60 15.5 49 9.4 67 67 ESE 14 22 30 1016 10 16.0934 0 0
8:55 pm 20:55 Mostly Cloudy 59 14.9 49 9.4 70 70 E 13 20 30 1016 10 16.0934 0 0
9:15 pm 21:15 Cloudy 58 14.6 49 9.3 71 71 E 15 24 30 1016 10 16.0934 0 0
9:35 pm 21:35 Cloudy 58 14.5 49 9.5 72 72 E 14 22 30 1016 10 16.0934 0 0
9:55 pm 21:55 Mostly Cloudy 57 13.9 49 9.3 74 74 E 18 30 30 1016 10 16.0934 0 0
10:15 pm 22:15 Partly Cloudy 56 13.5 49 9.5 77 77 E 13 20 30 1016 10 16.0934 0 0
10:35 pm 22:35 Partly Cloudy 55 13 49 9.3 78 78 E 12 19 30 1016 10 16.0934 0 0
10:55 pm 22:55 Clear 55 12.5 49 9.2 80 80 E 9 15 30 1016 10 16.0934 0 0
11:15 pm 23:15 Clear 54 12.2 48 9.1 82 82 E 8 13 30.03 1017 10 16.0934 0 0
11:35 pm 23:35 Partly Cloudy 54 12 48 9.1 83 83 E 8 13 30.03 1017 10 16.0934 0 0
11:55 pm 23:55 Partly Cloudy 53 11.6 48 9 84 84 E 8 13 30.03 1017 10 16.0934 0 0

Powered by AerisWeather